TimeCDT,TemperatureF,Dew PointF,Humidity,Sea Level PressureIn,VisibilityMPH,Wind Direction,Wind SpeedMPH,Gust SpeedMPH,PrecipitationIn,Events,Conditions,WindDirDegrees,DateUTC
12:12 AM,66.2,57.2,73,29.79,10.0,NW,6.9,-,N/A,Thunderstorm,Thunderstorm,320,2012-09-05 05:12:00
12:32 AM,68.0,55.4,64,29.85,10.0,WSW,12.7,20.7,N/A,Thunderstorm,Thunderstorm,240,2012-09-05 05:32:00
12:51 AM,71.6,53.6,53,29.87,10.0,WSW,12.7,19.6,N/A,Thunderstorm,Scattered Clouds,250,2012-09-05 05:51:00
1:12 AM,68.0,55.4,64,29.85,10.0,WSW,9.2,20.7,N/A,Rain-Thunderstorm,Light Thunderstorms and Rain,240,2012-09-05 06:12:00
1:32 AM,66.2,55.4,68,29.87,10.0,SW,9.2,23.0,0.01,Rain,Rain,230,2012-09-05 06:32:00
1:51 AM,60.8,57.2,88,29.74,10.0,SE,10.4,-,0.04,Rain,Light Rain,130,2012-09-05 06:51:00
2:12 AM,60.8,57.2,88,29.73,10.0,Calm,Calm,-,N/A,,Clear,0,2012-09-05 07:12:00
2:32 AM,59.0,57.2,94,29.73,10.0,Calm,Calm,-,N/A,,Clear,0,2012-09-05 07:32:00
2:51 AM,60.8,57.2,88,29.74,10.0,Calm,Calm,-,N/A,,Clear,0,2012-09-05 07:51:00
3:12 AM,60.8,57.2,88,29.77,10.0,SW,6.9,-,N/A,,Clear,230,2012-09-05 08:12:00
3:32 AM,60.8,57.2,88,29.78,10.0,West,4.6,-,N/A,,Clear,280,2012-09-05 08:32:00
3:51 AM,59.0,57.2,94,29.80,10.0,WNW,5.8,-,N/A,,Clear,300,2012-09-05 08:51:00
4:12 AM,59.0,57.2,94,29.81,10.0,NW,4.6,-,N/A,,Clear,320,2012-09-05 09:12:00
4:32 AM,57.2,55.4,94,29.81,10.0,NW,4.6,-,N/A,,Clear,320,2012-09-05 09:32:00
4:51 AM,57.2,57.2,100,29.82,10.0,Calm,Calm,-,N/A,,Clear,0,2012-09-05 09:51:00
5:12 AM,57.2,55.4,94,29.82,10.0,WNW,5.8,-,N/A,,Clear,290,2012-09-05 10:12:00
5:31 AM,57.2,55.4,94,29.82,10.0,WNW,4.6,-,N/A,,Clear,300,2012-09-05 10:31:00
5:52 AM,57.2,55.4,94,29.82,10.0,Calm,Calm,-,N/A,,Clear,0,2012-09-05 10:52:00
6:12 AM,55.4,55.4,100,29.82,10.0,SW,3.5,-,N/A,,Clear,220,2012-09-05 11:12:00
6:31 AM,55.4,55.4,100,29.82,10.0,Calm,Calm,-,N/A,,Clear,0,2012-09-05 11:31:00
6:52 AM,55.4,55.4,100,29.82,10.0,Calm,Calm,-,N/A,,Clear,0,2012-09-05 11:52:00
7:12 AM,55.4,55.4,100,29.82,10.0,SW,5.8,-,N/A,,Clear,220,2012-09-05 12:12:00
7:31 AM,57.2,57.2,100,29.84,10.0,Calm,Calm,-,N/A,,Clear,0,2012-09-05 12:31:00
7:52 AM,60.8,57.2,88,29.84,10.0,West,5.8,-,N/A,,Clear,270,2012-09-05 12:52:00
8:12 AM,62.6,57.2,82,29.84,10.0,West,4.6,-,N/A,,Scattered Clouds,270,2012-09-05 13:12:00
8:31 AM,62.6,57.2,82,29.84,10.0,Calm,Calm,-,N/A,,Clear,0,2012-09-05 13:31:00
8:52 AM,64.4,57.2,77,29.83,10.0,WSW,4.6,-,N/A,,Scattered Clouds,250,2012-09-05 13:52:00
9:12 AM,66.2,57.2,73,29.84,10.0,WNW,6.9,-,N/A,,Clear,290,2012-09-05 14:12:00
9:31 AM,68.0,55.4,64,29.84,10.0,NW,6.9,-,N/A,,Clear,320,2012-09-05 14:31:00
9:52 AM,69.8,57.2,64,29.84,10.0,North,5.8,-,N/A,,Clear,360,2012-09-05 14:52:00
10:12 AM,71.6,57.2,60,29.83,10.0,NNE,6.9,-,N/A,,Clear,30,2012-09-05 15:12:00
10:31 AM,71.6,57.2,60,29.83,10.0,NNE,8.1,-,N/A,,Clear,20,2012-09-05 15:31:00
10:52 AM,73.4,55.4,53,29.83,10.0,ENE,4.6,-,N/A,,Clear,60,2012-09-05 15:52:00
11:12 AM,73.4,55.4,53,29.83,10.0,ENE,4.6,-,N/A,,Clear,70,2012-09-05 16:12:00
11:31 AM,73.4,55.4,53,29.83,10.0,East,4.6,-,N/A,,Clear,80,2012-09-05 16:31:00
11:52 AM,75.2,53.6,47,29.83,10.0,Calm,Calm,-,N/A,,Clear,0,2012-09-05 16:52:00
12:12 PM,75.2,55.4,50,29.83,10.0,NNW,5.8,-,N/A,,Clear,330,2012-09-05 17:12:00
12:31 PM,77.0,55.4,47,29.83,10.0,NNW,5.8,-,N/A,,Clear,330,2012-09-05 17:31:00
12:52 PM,77.0,53.6,44,29.82,10.0,NW,8.1,-,N/A,,Clear,320,2012-09-05 17:52:00
1:12 PM,77.0,53.6,44,29.83,10.0,North,6.9,-,N/A,,Clear,350,2012-09-05 18:12:00
1:31 PM,77.0,55.4,47,29.83,10.0,West,11.5,-,N/A,,Clear,270,2012-09-05 18:31:00
1:52 PM,78.8,53.6,42,29.83,10.0,WNW,10.4,-,N/A,,Clear,300,2012-09-05 18:52:00
2:12 PM,78.8,53.6,42,29.83,10.0,NNW,9.2,-,N/A,,Clear,330,2012-09-05 19:12:00
2:31 PM,78.8,53.6,42,29.82,10.0,West,6.9,-,N/A,,Clear,270,2012-09-05 19:31:00
2:52 PM,78.8,53.6,42,29.82,10.0,West,10.4,-,N/A,,Clear,280,2012-09-05 19:52:00
3:12 PM,78.8,53.6,42,29.82,10.0,WSW,8.1,-,N/A,,Scattered Clouds,250,2012-09-05 20:12:00
3:31 PM,77.0,53.6,44,29.83,10.0,WNW,10.4,-,N/A,,Scattered Clouds,300,2012-09-05 20:31:00
3:52 PM,78.8,51.8,39,29.83,10.0,NW,8.1,16.1,N/A,,Scattered Clouds,310,2012-09-05 20:52:00
4:12 PM,77.0,55.4,47,29.83,10.0,West,11.5,-,N/A,,Clear,280,2012-09-05 21:12:00
4:31 PM,75.2,53.6,47,29.84,10.0,West,11.5,16.1,N/A,,Scattered Clouds,280,2012-09-05 21:31:00
5:12 PM,75.2,53.6,47,29.84,10.0,WNW,11.5,-,N/A,,Clear,290,2012-09-05 22:12:00
5:32 PM,75.2,51.8,44,29.84,10.0,NW,12.7,-,N/A,,Clear,310,2012-09-05 22:32:00
5:52 PM,75.2,51.8,44,29.84,10.0,WNW,10.4,-,N/A,,Clear,300,2012-09-05 22:52:00
6:12 PM,73.4,51.8,47,29.84,10.0,WNW,12.7,16.1,N/A,,Clear,300,2012-09-05 23:12:00
6:32 PM,73.4,48.2,41,29.85,10.0,WNW,10.4,-,N/A,,Clear,290,2012-09-05 23:32:00
6:52 PM,71.6,46.4,41,29.86,10.0,WNW,9.2,-,N/A,,Clear,300,2012-09-05 23:52:00
7:12 PM,69.8,46.4,43,29.86,10.0,WNW,6.9,-,N/A,,Clear,290,2012-09-06 00:12:00
7:31 PM,66.2,48.2,52,29.87,10.0,West,6.9,-,N/A,,Clear,280,2012-09-06 00:31:00
7:52 PM,64.4,48.2,56,29.88,10.0,West,5.8,-,N/A,,Clear,270,2012-09-06 00:52:00
8:11 PM,64.4,48.2,56,29.88,10.0,West,5.8,-,N/A,,Clear,280,2012-09-06 01:11:00
8:32 PM,62.6,48.2,59,29.89,10.0,West,5.8,-,N/A,,Clear,280,2012-09-06 01:32:00
8:52 PM,62.6,48.2,59,29.89,10.0,West,5.8,-,N/A,,Clear,280,2012-09-06 01:52:00
9:11 PM,62.6,46.4,55,29.89,10.0,West,6.9,-,N/A,,Clear,270,2012-09-06 02:11:00
9:32 PM,60.8,46.4,59,29.90,10.0,West,4.6,-,N/A,,Clear,270,2012-09-06 02:32:00
9:52 PM,60.8,46.4,59,29.90,10.0,West,3.5,-,N/A,,Clear,270,2012-09-06 02:52:00
10:11 PM,60.8,48.2,63,29.91,10.0,West,5.8,-,N/A,,Clear,270,2012-09-06 03:11:00
10:32 PM,60.8,48.2,63,29.91,10.0,West,4.6,-,N/A,,Clear,270,2012-09-06 03:32:00
10:52 PM,57.2,48.2,72,29.91,10.0,West,4.6,-,N/A,,Clear,270,2012-09-06 03:52:00
11:11 PM,55.4,48.2,77,29.91,10.0,Calm,Calm,-,N/A,,Clear,0,2012-09-06 04:11:00
11:32 PM,53.6,48.2,82,29.91,10.0,West,4.6,-,N/A,,Clear,270,2012-09-06 04:32:00
11:52 PM,53.6,48.2,82,29.91,10.0,West,3.5,-,N/A,,Clear,260,2012-09-06 04:52:00